Presure
297 300 299 300 296 288 289 293 293 292 296 305 289 302 321 347 428 377 284 282 253 244 230 206 202 212 222 206 204 195 194 203 197 188 184 185 188 191 195 198 201 202 194 197 188 201 206 231 193 263 238 226 209 205
336 407 407 411 409 315 304 297 293 289 299 304 288 316 358 507 526 370 299 272 241 234 227 208 205 205 209 220 209 191 190 182 187 189 190 194 197 199 200 202 193 203 190 200 144 195 234 209 263 247 229 216 202 189
371 373 388 403 385 409 474 315 303 302 295 303 306 355 553 482 373 294 285 253 240 223 222 229 196 206 209 213 205 204 204 191 181 199 194 196 198 200 200 205 208 216 208 209 159 212 158 194 176 229 220 201 199 219
354 392 380 386 386 384 437 383 314 290 302 299 328 332 397 319 290 280 258 239 226 220 223 219 212 213 211 211 208 208 205 208 207 188 174 196 196 184 182 179 196 205 173 200 175 146 211 229 238 218 211 193 197 275
379 396 392 483 413 396 419 457 322 298 288 324 309 307 280 275 300 257 243 227 217 233 216 222 200 222 198 217 207 210 207 202 192 187 197 188 187 199 203 188 216 193 207 196 209 222 236 262 205 216 204 193 199 279
393 407 534 503 415 409 439 351 300 284 324 289 306 266 274 284 255 245 224 215 208 216 211 205 202 197 206 193 195 198 199 201 199 194 190 185 173 186 195 199 209 202 206 149 223 233 293 237 206 211 195 193 194 261
395 465 421 434 411 435 368 292 292 315 394 294 281 262 265 245 242 229 220 218 203 210 210 205 202 181 151 183 204 168 209 203 198 179 190 204 189 180 199 224 206 187 174 207 219 265 247 221 205 205 191 193 249 260
401 422 449 410 431 314 301 291 315 333 308 302 266 291 243 240 228 223 213 213 213 205 201 201 203 206 203 199 207 221 222 199 193 200 191 186 186 193 222 187 202 199 202 215 219 279 230 208 204 200 186 196 172 217
415 420 432 330 298 307 290 331 327 298 265 280 294 266 240 236 228 219 212 211 211 212 211 206 200 204 200 202 203 214 202 202 207 197 211 190 201 214 197 194 195 208 208 188 217 251 216 200 204 196 193 183 171 221
327 309 306 294 304 288 323 360 300 277 280 266 250 239 228 221 216 215 210 201 205 199 209 204 191 200 215 208 206 203 204 209 213 204 206 199 210 205 192 198 199 203 213 225 217 242 207 189 196 198 190 187 178 194
296 297 292 276 292 314 357 299 281 282 259 254 241 232 223 218 213 213 218 208 206 203 202 206 204 205 192 196 191 205 206 205 199 207 198 196 218 209 203 208 182 210 208 227 210 240 214 189 195 197 188 184 181 197
293 302 301 278 307 342 274 308 298 287 256 246 234 231 223 214 216 212 213 207 207 205 202 199 199 199 200 200 198 209 206 208 201 198 197 203 215 195 201 193 204 206 210 217 204 248 222 197 198 170 193 182 184 197
299 295 304 279 342 286 285 295 259 252 252 242 237 229 225 204 215 212 206 206 204 205 199 199 203 203 200 206 215 199 201 193 194 202 199 200 209 193 196 194 200 208 205 211 236 250 238 210 198 171 197 182 184 191
302 303 316 313 330 285 275 260 251 241 235 223 228 212 213 217 199 208 211 205 206 204 196 205 201 217 205 193 188 192 190 190 195 197 189 212 204 183 194 206 217 177 200 204 240 173 186 227 206 152 194 192 183 191
305 309 308 338 314 278 275 254 243 241 233 226 224 212 215 212 211 202 206 202 207 199 203 210 193 202 206 199 200 196 195 189 192 190 198 197 200 192 191 199 215 202 197 200 220 215 228 235 212 202 194 198 187 184
342 300 302 338 283 271 263 247 243 228 233 223 219 226 211 216 209 207 200 200 205 203 198 200 201 196 203 198 194 193 196 192 190 193 204 187 184 196 201 207 216 189 205 174 218 215 240 239 216 207 197 192 198 181
521 305 334 340 316 255 247 228 253 232 233 222 217 211 209 211 202 198 201 204 194 203 199 204 202 212 205 206 202 189 194 190 190 198 188 186 194 203 207 213 217 192 195 203 223 210 209 248 226 212 204 202 193 199
393 381 455 263 274 240 248 239 244 233 229 221 214 215 200 198 196 204 206 200 203 205 198 199 205 195 197 202 193 195 192 197 208 194 192 191 203 208 213 216 212 191 202 213 204 220 214 278 238 223 209 203 202 196
348 354 351 336 262 247 245 250 245 236 224 214 216 205 202 199 201 200 201 208 205 205 203 197 198 197 202 191 188 191 201 205 195 191 195 192 200 204 210 211 194 202 197 206 211 201 218 260 269 235 223 210 203 202
310 340 308 276 252 234 232 238 243 244 224 219 212 211 203 207 206 200 200 198 198 208 205 200 206 201 203 198 194 197 192 191 204 197 203 199 208 209 203 204 210 191 189 194 196 203 203 204 289 257 232 223 212 207
265 264 243 240 242 235 221 254 229 229 221 219 218 208 207 209 201 192 201 192 200 199 188 199 201 199 200 203 198 211 192 203 197 205 200 196 203 212 214 205 208 201 209 200 198 199 206 202 223 263 296 237 226 219
249 243 236 236 233 212 204 220 231 213 212 217 207 203 200 198 198 207 205 205 205 204 200 203 193 200 201 211 205 197 205 206 208 192 195 196 212 207 199 191 206 208 205 208 216 194 195 210 205 210 243 286 257 234
240 229 235 225 224 223 216 223 218 217 216 206 205 204 199 201 202 202 189 195 201 202 171 190 197 204 211 201 198 197 203 193 196 207 208 213 206 203 199 193 207 210 206 208 209 211 177 189 213 229 207 236 286 283
243 228 222 231 222 224 224 211 220 204 222 212 213 215 209 204 181 199 207 209 208 194 201 209 203 189 208 211 208 174 180 204 208 202 206 213 211 192 197 200 205 210 209 209 211 218 191 191 194 207 216 216 211 270
248 239 233 230 222 225 228 224 210 214 212 219 208 192 211 212 207 207 206 200 207 209 203 195 197 203 205 204 179 173 210 174 167 221 222 214 208 201 194 195 206 212 205 208 209 213 211 181 193 200 222 220 230 237
253 248 247 232 225 230 224 217 220 225 213 210 193 205 210 200 200 190 207 208 207 212 212 205 209 201 200 217 215 220 178 179 232 221 217 213 208 199 204 207 210 212 208 207 209 212 217 192 218 200 213 219 214 204
250 252 245 243 242 233 222 225 224 230 219 209 210 206 202 204 209 210 208 209 213 209 206 211 222 170 210 217 214 185 211 222 223 218 213 206 195 203 205 210 212 213 212 211 213 214 211 214 206 219 209 216 217 213
252 257 245 248 231 243 234 228 230 227 220 223 219 219 215 214 214 215 210 209 194 202 205 218 220 217 222 199 202 204 216 221 217 212 212 212 194 206 208 213 215 213 213 212 215 219 212 213 218 220 221 214 215 220
251 215 218 246 264 238 246 243 223 235 233 225 221 220 224 219 215 218 214 214 217 223 218 206 196 222 207 208 210 217 222 221 211 214 211 216 216 206 213 213 210 218 218 209 221 218 213 216 215 216 207 218 184 216
223 238 244 222 226 223 246 229 239 246 234 227 225 217 226 219 220 225 219 221 215 220 220 222 220 216 216 213 219 224 223 223 214 215 213 217 215 212 211 210 214 216 217 219 217 215 213 217 219 223 226 216 220 219
243 246 250 232 242 253 228 230 234 248 237 239 244 253 242 230 222 224 225 233 224 223 218 210 216 219 221 223 225 223 222 220 218 217 216 215 214 217 219 215 215 219 218 217 214 211 214 216 223 223 218 217 218 222
311 292 285 261 255 254 257 252 245 241 239 244 240 223 234 264 240 236 233 234 234 231 225 225 222 223 232 228 227 225 231 224 221 218 217 216 215 215 217 219 218 217 215 216 214 212 217 223 219 224 221 217 224 227
242 253 265 289 284 264 258 272 286 307 301 254 248 248 251 244 255 239 228 235 241 241 241 238 237 232 229 227 230 235 228 224 220 216 215 219 220 221 222 219 221 218 215 218 224 224 221 224 225 222 223 224 220 219
Wind_Speed
62 65 67 69 71 73 73 72 68 63 54 49 48 43 44 53 59 83 96 110 101 99 97 94 94 90 85 83 85 82 81 82 88 93 96 94 95 91 88 85 80 72 61 57 52 57 53 51 49 25 30 31 34 41
77 55 58 62 71 87 82 78 69 58 53 50 48 41 43 52 66 98 100 108 104 99 97 97 87 84 85 84 81 83 86 91 92 91 86 82 77 77 76 74 63 66 51 54 22 48 47 42 27 25 30 31 36 43
41 48 49 50 58 59 62 89 76 63 52 48 42 44 42 85 96 97 105 108 103 97 96 95 87 89 90 86 86 89 89 86 78 78 69 68 68 68 68 66 64 59 54 50 44 47 25 41 45 27 29 32 39 41
35 40 38 44 57 63 63 85 77 63 53 49 49 73 81 93 94 104 108 103 99 97 97 92 88 87 84 78 78 82 80 78 74 60 52 64 65 59 52 48 44 46 49 45 32 24 35 29 21 27 28 36 38 38
34 35 41 47 58 67 65 69 79 62 61 50 86 87 97 96 105 111 105 100 96 93 90 79 83 73 66 73 75 74 71 67 62 62 65 63 58 60 55 46 44 40 42 43 42 37 29 18 28 25 25 32 35 27
13 15 29 48 61 65 65 89 70 69 57 85 98 97 93 108 115 113 104 101 96 93 92 90 86 83 83 77 75 71 68 70 66 64 58 51 40 48 49 33 39 36 41 15 34 32 15 15 24 22 27 32 33 19
10 18 39 58 63 65 86 81 73 73 60 97 98 100 120 116 110 109 107 103 89 89 91 90 87 76 57 70 74 52 68 65 62 45 51 55 50 41 36 36 33 37 24 32 33 23 9 16 21 19 29 31 19 12
22 36 49 59 66 83 82 80 75 79 103 105 101 101 117 116 114 111 101 98 97 95 88 88 84 82 77 70 66 58 56 62 58 59 55 48 48 42 36 32 28 33 37 32 29 17 15 19 19 19 26 26 31 21
38 45 55 82 84 79 83 67 95 109 100 102 101 124 121 116 111 106 101 97 94 90 87 88 79 78 70 65 61 59 61 61 56 52 49 44 47 35 21 26 28 27 33 33 26 14 17 21 20 19 25 31 27 20
67 72 76 80 78 82 62 81 107 112 114 115 121 123 117 109 106 105 104 99 98 95 90 87 70 78 59 60 62 63 60 51 47 43 42 46 40 23 24 29 23 27 31 31 27 16 18 21 22 21 25 27 31 28
68 70 73 77 74 63 71 108 114 125 131 133 128 123 116 114 109 107 104 104 99 94 90 85 78 67 69 69 71 61 54 48 40 41 42 45 29 23 31 26 36 25 31 30 28 20 22 23 24 24 26 32 32 24
64 68 67 76 64 74 101 108 119 130 129 129 122 125 116 110 108 105 106 98 95 91 85 81 79 76 74 71 50 42 34 36 37 38 40 35 21 31 28 27 24 29 29 31 31 21 25 25 26 31 26 33 35 27
60 66 67 77 62 110 115 120 126 124 122 117 114 109 113 95 110 107 97 92 87 84 77 77 76 72 56 52 55 38 38 39 43 37 36 18 25 31 28 27 27 26 31 33 29 28 28 29 29 28 31 33 37 32
60 62 64 66 88 119 123 128 126 125 119 108 114 104 106 111 80 93 93 86 86 84 70 75 64 72 57 43 44 44 43 45 36 34 35 28 35 39 29 30 26 39 34 35 35 34 27 32 34 30 31 31 37 32
59 63 70 63 108 123 130 131 125 124 121 116 115 104 104 98 96 86 88 85 87 77 76 77 55 63 65 55 54 48 46 37 36 39 29 37 38 29 33 29 28 29 35 37 39 33 32 36 37 36 33 35 34 37
68 73 74 73 118 117 131 126 126 107 118 114 104 111 93 98 92 90 82 80 86 82 70 73 70 62 61 47 42 41 36 39 42 36 41 44 36 33 37 35 28 35 33 32 39 37 33 38 39 40 37 37 38 36
54 71 78 88 125 123 130 91 130 119 122 109 105 94 89 93 88 85 89 89 69 78 71 74 64 60 46 48 44 40 48 52 47 40 41 39 34 38 40 38 31 42 35 35 34 38 35 41 41 42 43 44 40 42
65 68 78 105 134 105 124 112 124 115 114 108 101 100 90 86 80 88 91 82 80 78 68 58 58 47 49 49 48 57 56 46 41 43 44 40 41 40 41 37 34 44 38 34 38 37 40 39 47 46 46 46 48 45
65 72 85 101 125 112 108 120 122 116 110 102 103 93 91 85 87 87 87 88 81 78 67 56 54 52 54 55 57 57 52 43 47 46 39 40 40 39 39 37 43 40 42 38 37 38 40 37 44 53 51 50 51 51
72 80 95 114 123 107 104 111 111 116 104 98 97 100 91 94 93 88 82 69 63 73 69 59 61 62 63 62 60 48 41 46 48 45 44 44 45 43 42 40 41 44 43 45 42 41 42 44 37 48 58 59 57 57
90 97 104 107 111 117 89 113 95 101 99 98 100 91 90 92 89 71 78 66 73 70 54 61 67 63 62 60 53 55 49 48 47 46 45 45 45 48 45 42 43 45 42 44 44 44 44 45 45 40 42 60 64 65
99 104 104 107 109 80 74 89 96 93 95 98 94 92 91 87 82 86 83 82 78 75 69 72 62 63 60 63 56 53 53 51 49 49 48 48 53 49 48 51 46 45 45 43 42 47 46 46 48 49 45 44 57 66
100 99 109 105 111 107 100 102 100 98 98 93 94 93 90 88 87 84 64 66 75 75 52 63 67 69 68 55 50 52 52 54 49 49 53 57 56 52 52 52 48 47 46 47 47 44 44 47 50 48 52 50 47 51
102 100 93 110 105 110 110 93 104 78 103 99 99 102 100 89 54 80 86 84 84 68 75 77 69 55 64 63 60 67 59 49 52 55 58 59 58 56 55 54 52 50 49 49 49 46 50 52 53 51 53 55 55 51
96 103 104 104 99 104 108 104 81 91 91 100 92 66 96 93 90 88 86 79 85 85 77 67 61 67 61 54 60 60 59 55 44 57 57 59 60 59 58 56 57 56 52 51 51 51 52 48 54 55 54 55 55 55
85 93 99 104 101 107 106 96 97 104 94 90 73 88 93 78 77 61 91 90 88 90 87 76 79 66 65 73 63 61 60 62 56 59 61 61 60 61 62 62 61 60 56 56 56 56 54 57 56 57 56 55 58 62
88 87 97 93 101 102 97 101 100 105 98 91 100 95 88 90 93 93 92 91 93 83 75 79 84 58 73 75 69 70 61 63 62 63 62 63 63 64 64 65 64 63 61 61 61 59 58 58 60 61 60 59 59 62
76 86 94 98 92 105 102 99 104 101 94 103 103 105 103 102 99 100 95 91 68 77 80 92 89 86 83 68 67 66 69 67 66 66 65 66 65 68 68 67 67 65 66 66 65 66 61 61 63 64 65 64 64 64
76 71 65 76 94 89 97 103 85 101 101 101 101 102 107 104 102 105 101 100 101 98 95 80 75 90 75 75 77 80 78 75 70 70 71 72 71 71 69 67 67 71 71 66 70 69 66 67 67 67 64 67 61 70
68 75 80 75 77 72 71 79 89 98 100 102 102 99 103 101 102 104 103 103 98 101 100 98 93 89 88 85 87 86 83 78 74 75 76 76 75 72 69 70 72 73 72 71 72 72 70 73 74 73 74 71 74 74
81 81 85 77 78 84 78 76 78 82 87 88 95 103 113 111 103 104 107 114 107 105 95 85 89 92 93 94 93 89 84 81 81 82 81 78 74 73 74 73 74 76 75 74 74 73 74 76 78 77 73 75 78 81
76 85 89 92 87 88 89 93 88 85 89 97 92 91 95 102 110 113 115 114 113 112 109 107 99 99 102 99 96 92 90 86 85 84 80 77 76 77 79 79 77 76 75 76 77 76 78 80 79 83 82 82 85 86
61 63 65 71 81 89 83 85 77 77 85 95 93 94 98 101 103 108 102 106 112 117 119 115 112 110 105 99 99 96 91 90 87 82 81 84 85 85 84 82 82 79 76 79 82 83 83 86 87 86 87 88 87 87
Wind_Direction
260 257 252 247 240 235 233 230 227 227 226 222 208 216 225 227 223 194 183 186 187 190 195 201 209 210 208 214 215 219 224 227 230 235 241 246 250 255 259 264 270 276 284 288 291 300 303 304 296 308 302 311 318 313
263 248 244 238 232 234 229 230 225 217 217 214 204 221 223 219 185 179 179 178 185 189 193 202 205 209 211 210 212 218 219 222 226 232 237 242 248 254 259 264 272 278 283 291 278 297 305 293 305 301 305 318 314 315
253 251 242 232 227 222 216 217 217 214 205 200 201 202 207 170 175 170 169 177 181 188 194 196 203 206 210 211 214 215 217 223 228 235 242 247 250 254 260 266 273 280 286 289 272 303 288 294 297 303 312 315 313 329
255 252 231 225 213 212 205 202 204 188 193 187 192 174 168 166 163 165 171 176 183 189 194 198 202 206 210 211 216 221 225 228 231 234 239 246 250 255 260 264 277 283 265 292 288 279 289 305 301 306 314 309 318 331
258 240 239 221 201 199 197 192 192 181 181 183 169 163 159 162 164 167 170 176 184 186 193 191 203 197 200 206 214 219 224 230 233 237 241 244 250 258 262 268 281 278 290 286 292 287 300 294 301 302 313 308 321 333
220 246 179 181 181 183 182 179 168 174 173 171 166 164 157 159 165 167 170 179 189 188 191 197 201 207 210 210 215 219 223 227 229 234 239 244 244 255 264 272 281 286 288 266 288 294 275 283 294 302 303 308 319 344
164 155 161 162 167 171 164 160 169 173 177 167 161 160 156 165 165 166 175 180 188 190 193 197 202 204 201 210 217 212 222 226 230 226 241 248 249 250 266 278 282 265 273 283 287 294 258 274 288 305 302 313 349 15
140 140 149 155 157 153 156 161 165 162 163 163 159 158 163 166 169 172 177 182 185 192 199 201 202 209 210 213 218 215 216 229 234 240 241 244 250 259 269 255 276 273 283 282 290 272 264 275 291 301 301 315 315 345
136 146 151 144 153 154 159 158 161 158 156 157 157 162 165 169 172 173 178 183 188 190 193 202 204 212 211 214 217 215 227 232 234 236 242 245 256 257 254 265 264 278 277 275 284 255 270 279 287 293 300 303 317 355
134 141 145 150 152 158 159 159 160 156 155 151 158 163 167 169 172 177 180 184 189 194 194 201 201 210 209 213 220 224 227 225 227 236 245 249 253 246 252 263 264 271 272 283 281 240 259 272 287 289 292 301 311 320
146 147 151 158 156 159 162 160 159 156 158 160 164 166 169 172 176 179 179 186 191 194 198 199 201 200 210 210 215 217 219 225 231 238 244 248 251 258 261 260 249 266 268 287 278 246 254 268 278 284 289 297 305 316
154 154 154 159 159 161 160 161 163 158 160 163 169 169 171 174 178 181 186 190 191 195 198 201 205 209 211 213 214 221 223 226 230 231 241 248 251 247 258 243 264 261 266 279 271 259 250 266 271 286 283 294 300 307
161 159 159 161 160 158 158 154 157 161 164 164 165 168 170 183 181 184 189 190 193 197 201 205 207 210 208 214 220 219 226 226 231 235 241 230 257 248 252 251 265 267 265 274 280 277 245 254 268 283 280 290 296 300
166 165 164 161 165 160 160 162 161 164 167 173 169 178 179 183 185 185 186 192 195 200 203 208 209 212 211 206 209 217 220 226 231 238 237 254 251 231 253 270 273 256 268 274 293 259 266 248 260 286 273 279 290 294
171 170 164 162 162 160 162 165 167 168 170 174 173 182 182 182 185 188 191 194 197 201 204 208 205 215 217 216 219 220 226 223 236 236 238 245 249 242 248 261 266 258 264 273 283 274 263 249 257 266 274 278 285 296
179 167 162 162 165 165 163 166 169 175 173 176 180 178 184 184 184 188 195 197 200 203 204 207 208 212 220 217 219 225 231 233 238 237 246 235 232 251 261 263 259 258 260 265 278 274 267 249 256 265 273 278 278 286
156 166 163 166 166 165 168 179 171 175 174 178 181 185 184 184 187 192 197 202 201 207 208 214 215 219 218 223 225 222 232 233 237 240 234 232 245 258 262 265 262 256 262 265 280 276 275 258 255 262 269 271 279 279
127 145 142 167 164 175 172 177 175 176 177 179 182 182 185 190 192 197 201 205 207 209 208 209 215 207 216 223 224 231 232 235 240 241 241 242 253 258 264 268 263 257 261 269 269 280 278 265 260 261 267 273 275 280
146 151 157 165 170 177 177 174 176 177 178 183 183 187 189 193 196 201 205 206 209 212 212 208 211 215 222 221 222 230 237 235 237 237 242 242 252 258 261 261 252 260 264 268 273 275 284 293 263 262 264 269 274 278
144 147 155 164 171 177 179 180 180 179 183 185 186 187 192 196 199 203 207 207 208 216 218 218 223 225 226 227 230 232 229 232 240 242 247 248 256 258 257 259 264 262 265 268 271 275 277 281 308 266 265 268 270 275
156 159 166 169 173 178 183 185 184 182 184 186 188 193 196 198 204 205 210 210 215 217 207 220 224 224 229 233 231 235 229 237 238 243 245 244 254 260 260 261 265 260 264 266 271 275 278 281 287 302 289 266 268 272
164 168 171 174 178 179 179 185 185 186 188 188 191 196 202 205 209 211 213 214 216 219 221 225 218 228 229 233 233 229 238 240 242 237 242 246 255 254 251 252 264 266 266 270 274 274 278 283 285 286 293 295 271 269
171 174 176 178 181 184 187 189 188 191 190 192 195 198 204 207 210 213 209 215 220 221 214 217 227 233 234 231 228 232 239 236 240 247 250 252 252 251 250 251 263 267 266 271 272 274 270 279 286 296 288 294 301 286
177 181 182 183 185 187 189 192 194 193 194 196 198 200 204 209 208 215 218 220 223 218 227 231 233 223 239 239 240 229 231 241 244 243 248 250 251 247 252 256 262 266 267 269 274 281 273 278 284 288 289 290 292 303
183 185 187 188 192 193 195 196 198 198 200 200 203 209 207 209 213 216 220 221 225 227 229 225 229 235 237 231 236 237 243 241 244 249 247 247 249 251 252 255 265 267 265 270 275 278 278 276 283 287 293 294 299 300
187 188 191 193 195 197 199 203 202 202 204 205 207 209 211 212 217 217 224 228 229 229 230 231 236 230 229 243 241 246 240 242 249 246 245 247 251 252 257 261 265 268 268 270 273 277 281 278 286 284 288 293 293 293
191 193 195 198 199 201 204 205 207 206 207 210 210 212 216 218 220 222 226 229 231 233 234 237 238 233 243 246 247 232 250 250 249 247 246 248 250 255 259 262 265 269 271 273 276 278 278 281 279 289 286 289 293 293
200 200 200 200 205 204 207 210 211 211 212 211 213 215 217 218 221 223 228 231 225 232 236 239 240 242 240 235 240 244 251 249 247 248 250 251 252 257 259 263 267 269 271 272 275 278 278 282 287 290 292 290 293 297
212 198 203 208 208 210 212 213 217 217 216 217 219 218 219 221 224 225 230 233 234 235 237 235 229 241 240 243 246 250 249 247 244 248 250 253 254 256 260 264 267 271 273 274 280 281 281 285 287 290 290 292 287 295
210 217 221 214 214 210 217 214 215 217 219 220 222 223 222 225 226 227 230 233 236 236 237 239 239 241 243 244 248 248 248 249 248 250 251 253 254 258 261 265 269 272 275 277 279 281 283 286 288 290 292 291 295 296
221 223 221 215 221 224 216 217 218 223 220 221 222 224 224 226 228 229 232 230 235 239 242 241 243 245 246 247 248 247 248 248 250 251 253 255 258 262 264 266 269 272 274 276 278 280 283 286 289 291 292 294 295 296
218 225 230 224 223 226 228 228 228 228 226 225 224 224 226 228 228 229 232 234 236 239 244 245 247 248 248 248 249 249 251 250 251 253 256 260 262 264 265 267 269 272 275 278 279 281 284 286 288 290 290 289 291 293
221 221 223 224 228 230 234 235 233 230 234 231 232 231 232 231 234 230 234 236 237 237 239 241 243 244 246 248 249 250 250 251 254 257 260 261 263 265 267 269 271 273 275 278 280 281 283 284 285 286 288 289 289 290